Regional Weather Roundup
Issued by NWS Albany, NY

Home | Current Version | Previous Version | Text Only | Print | Product List | Glossary On
Versions: 1 2 3 4 5 6 7 8 9 10 11 12 13 14 15 16 17 18 19 20 21 22 23 24 25 26 27 28 29 30 31 32 33 34 35 36 37 38 39 40 41 42 43 44 45 46 47 48 49 50
000
ASUS41 KALY 270910
RWRALY

NEW YORK STATE HOURLY WEATHER ROUNDUP
NATIONAL WEATHER SERVICE ALBANY NY
400 AM EST THU NOV 27 2014

NOTE: "FAIR" INDICATES FEW OR NO CLOUDS BELOW 12,000 FEET WITH NO
SIGNIFICANT WEATHER AND/OR NO OBSTRUCTIONS TO VISIBILITY.

NYZ032-033-038>043-046>054-057>066-NYZ062>081-271000-
EAST


CITY           SKY/WX    TMP DP  RH WIND       PRES   REMARKS
ALBANY         FLURRIES  30  27  88 NW8       29.93R WCI  22
GLENS FALLS    MOCLDY    30  27  88 N5        29.91S WCI  25
POUGHKEEPSIE   CLOUDY    33  28  81 N3        29.92R
NEWBURGH       CLOUDY    30  30 100 W3        29.92
MONTGOMERY     FOG       30  29  96 CALM      29.90R VSB 3/4
WHITE PLAINS   CLOUDY    33  28  81 NW20      29.88R WCI  21
ISLIP          MOCLDY    35  31  85 NW12      29.85R WCI  27
NEW YORK CITY  CLOUDY    36  30  79 NW12      29.92R WCI  28
CENTRAL PARK   CLOUDY    36  30  79 NW7       29.94R WCI  30
$$

NYZ005>009-017-018-044>046-055-056-271000-
CENTRAL


CITY           SKY/WX    TMP DP  RH WIND       PRES   REMARKS
FULTON         LGT SNOW  29  26  89 CALM      29.99F FOG
SYRACUSE       FLURRIES  29  25  85 N9        29.99F WCI  20
ROME           FLURRIES  27  26  96 NW6       29.98F WCI  20
ELMIRA         CLOUDY    30  27  88 CALM      29.97F
BINGHAMTON     CLOUDY    36  24  62 NW6       29.90S WCI  31
MONTICELLO     MOCLDY    28  25  86 W8        29.89R WCI  20
$$

NYZ026>034-041>043-271000-
NORTH


CITY           SKY/WX    TMP DP  RH WIND       PRES   REMARKS
WATERTOWN      CLOUDY    30  20  66 N10       30.01S WCI  21
FORT DRUM      NOT AVBL
MASSENA        CLOUDY    29  21  72 N7        30.02S WCI  22
SARANAC LAKE   CLOUDY    23 N/A N/A N3        29.87S
PLATTSBURGH    LGT SNOW  28  26  92 N9        29.97F FOG     WCI  19
$$

NYZ001>004-010>016-019>021-271000-
WEST


CITY           SKY/WX    TMP DP  RH WIND       PRES   REMARKS
NIAGARA FALLS  CLOUDY    29  21  72 E3        30.04F
BUFFALO        FLURRIES  29  22  75 NE6       30.04F WCI  23
DUNKIRK        CLOUDY    29  25  85 NE7       30.03F WCI  22
JAMESTOWN      CLOUDY    27  21  80 NE7       29.96F WCI  19
WELLSVILLE     FLURRIES  25  22  88 N7        29.95S WCI  17
ROCHESTER      LGT SNOW  28  26  92 NW7       30.03F FOG     WCI  21
PENN YAN       LGT SNOW  29  25  85 NW7       29.99S FOG     WCI  22
$$

             KEY
       WCI = WIND CHILL INDEX
       VSB = VISIBILITY
       HX  = HEAT INDEX
$$


USA.gov is the U.S. government's official web portal to all federal, state and local government web resources and services.